O'Neill, NE

7:12 AM CDT on August 17, 2017 (GMT -0500)
The O'Neill Municipal-Baker

Weather History for KONL - September, 2014

Change the Weather History Date:

Friday, September 19, 2014

  Actual Average Record
Temperature  
Mean Temperature 78 °F -  
Max Temperature 92 °F 75 °F 98 °F (1984)
Min Temperature 64 °F 48 °F 19 °F (2000)
Cooling Degree Days 14    
Growing Degree Days 28 (Base 50)    
Moisture  
Dew Point 64 °F    
Average Humidity 72    
Maximum Humidity 97    
Minimum Humidity 32    
Precipitation  
Precipitation 0.00 in - - ()
Sea Level Pressure  
Sea Level Pressure 29.79 in    
Wind  
Wind Speed 13 mph (SSW)    
Max Wind Speed 21 mph    
Max Gust Speed 29 mph    
Visibility 10 miles    
Events      
Averages and records for this station are not official NWS values.
T = Trace of Precipitation, MM = Missing Value Source: NWS Daily Summary

Daily Weather History Graph

Daily Weather History Graph

Search for Another Location

Airport or City:

Trip Planner

Search our weather history database for the weather conditions in past years. The results will help you decide how hot, cold, wet, or windy it might be!

Date:

Astronomy

Sep. 19, 2014 Rise Set
Actual Time 7:18 AM CDT 7:37 PM CDT
Civil Twilight 6:50 AM CDT 8:05 PM CDT
Nautical Twilight 6:17 AM CDT 8:38 PM CDT
Astronomical Twilight 5:43 AM CDT 9:12 PM CDT
Moon 3:01 AM CDT (9/19) 5:10 PM CDT (9/19)
Length of Visible Light 13h 14m
Length of Day
12h 18m
Waning Crescent, 18% of the Moon is Illuminated
Sep 19
Waning Crescent
Sep 24
New
Oct 1
First Quarter
Oct 8
Full
Oct 15
Last Quarter

Hourly Weather History & Observations

Time (CDT) Temp. Heat Index Dew Point Humidity Pressure Visibility Wind Dir Wind Speed Gust Speed Precip Events Conditions
12:15 AM 66.9 °F - 65.3 °F 95% 29.87 in 10.0 mi South 10.4 mph 17.3 mph N/A   Clear
12:35 AM 66.2 °F - 65.3 °F 97% 29.86 in 7.0 mi SSE 16.1 mph 21.9 mph N/A   Scattered Clouds
12:55 AM 66.7 °F - 65.3 °F 95% 29.86 in 10.0 mi SSE 12.7 mph 19.6 mph N/A   Overcast
1:15 AM 66.2 °F - 64.9 °F 96% 29.86 in 7.0 mi SSE 15.0 mph 19.6 mph N/A   Overcast
1:35 AM 66.9 °F - 65.1 °F 94% 29.85 in 10.0 mi South 15.0 mph - N/A   Overcast
1:55 AM 67.1 °F - 64.8 °F 92% 29.85 in 10.0 mi South 16.1 mph 23.0 mph N/A   Overcast
2:15 AM 66.7 °F - 64.6 °F 93% 29.85 in 10.0 mi South 16.1 mph 24.2 mph N/A   Overcast
2:35 AM 66.9 °F - 64.6 °F 92% 29.84 in 10.0 mi South 16.1 mph 25.3 mph N/A   Overcast
2:55 AM 67.1 °F - 64.6 °F 92% 29.83 in 10.0 mi South 16.1 mph 21.9 mph N/A   Overcast
3:15 AM 67.1 °F - 64.8 °F 92% 29.83 in 10.0 mi South 15.0 mph 25.3 mph N/A   Overcast
3:35 AM 67.5 °F - 64.8 °F 91% 29.83 in 7.0 mi South 16.1 mph 25.3 mph N/A   Overcast
3:55 AM 67.6 °F - 64.8 °F 90% 29.82 in 7.0 mi South 16.1 mph 28.8 mph N/A   Overcast
4:15 AM 68.0 °F - 65.1 °F 90% 29.82 in 10.0 mi South 16.1 mph 23.0 mph N/A   Overcast
4:35 AM 68.0 °F - 65.1 °F 90% 29.81 in 10.0 mi South 18.4 mph 23.0 mph N/A   Overcast
4:55 AM 68.0 °F - 64.9 °F 90% 29.81 in 10.0 mi South 13.8 mph 21.9 mph N/A   Overcast
5:15 AM 68.0 °F - 64.9 °F 90% 29.81 in 10.0 mi South 17.3 mph 24.2 mph N/A   Overcast
5:35 AM 67.8 °F - 64.9 °F 90% 29.81 in 10.0 mi South 13.8 mph 19.6 mph N/A   Overcast
5:55 AM 67.1 °F - 64.6 °F 92% 29.81 in 10.0 mi South 17.3 mph 21.9 mph N/A   Overcast
6:15 AM 66.4 °F - 64.4 °F 93% 29.80 in 10.0 mi South 15.0 mph - N/A   Mostly Cloudy
6:35 AM 66.2 °F - 64.4 °F 94% 29.80 in 10.0 mi South 12.7 mph 17.3 mph N/A   Scattered Clouds
6:55 AM 65.5 °F - 64.0 °F 95% 29.80 in 10.0 mi South 12.7 mph 18.4 mph N/A   Scattered Clouds
7:15 AM 65.3 °F - 63.9 °F 95% 29.80 in 10.0 mi South 11.5 mph - N/A   Scattered Clouds
7:35 AM 64.6 °F - 63.5 °F 96% 29.80 in 10.0 mi South 11.5 mph - N/A   Clear
7:55 AM 65.3 °F - 63.7 °F 94% 29.80 in 10.0 mi South 11.5 mph - N/A   Clear
8:15 AM 65.5 °F - 63.7 °F 94% 29.80 in 10.0 mi South 12.7 mph 16.1 mph N/A   Clear
8:35 AM 66.2 °F - 64.4 °F 94% 29.81 in 10.0 mi SSW 11.5 mph - N/A   Clear
8:55 AM 68.2 °F - 64.4 °F 88% 29.81 in 10.0 mi SSW 12.7 mph - N/A   Clear
9:15 AM 69.3 °F - 64.2 °F 84% 29.80 in 10.0 mi SSW 17.3 mph - N/A   Clear
9:35 AM 70.7 °F - 64.4 °F 80% 29.80 in 10.0 mi SSW 16.1 mph 19.6 mph N/A   Clear
9:55 AM 72.3 °F - 64.8 °F 77% 29.80 in 10.0 mi SSW 15.0 mph - N/A   Clear
10:15 AM 73.8 °F - 64.6 °F 73% 29.79 in 10.0 mi SSW 16.1 mph 24.2 mph N/A   Clear
10:35 AM 75.0 °F - 64.4 °F 69% 29.79 in 10.0 mi SSW 20.7 mph 25.3 mph N/A   Clear
10:55 AM 76.1 °F - 64.4 °F 67% 29.79 in 10.0 mi SSW 12.7 mph 24.2 mph N/A   Clear
11:15 AM 76.8 °F - 64.6 °F 66% 29.79 in 10.0 mi SSW 17.3 mph 24.2 mph N/A   Clear
11:35 AM 78.6 °F - 64.6 °F 62% 29.78 in 10.0 mi SSW 18.4 mph 24.2 mph N/A   Clear
11:55 AM 80.4 °F 82.2 °F 64.8 °F 59% 29.78 in 10.0 mi SSW 15.0 mph 23.0 mph N/A   Clear
12:15 PM 81.0 °F 82.6 °F 64.2 °F 57% 29.78 in 10.0 mi SSW 17.3 mph 20.7 mph N/A   Clear
12:35 PM 83.3 °F 85.1 °F 64.9 °F 54% 29.78 in 10.0 mi SSW 17.3 mph 24.2 mph N/A   Clear
12:55 PM 84.4 °F 85.4 °F 63.3 °F 49% 29.78 in 10.0 mi SW 13.8 mph 23.0 mph N/A   Clear
1:15 PM 86.0 °F 87.3 °F 64.4 °F 48% 29.76 in 10.0 mi SSW 16.1 mph 21.9 mph N/A   Clear
1:35 PM 87.8 °F 88.5 °F 62.6 °F 43% 29.77 in 10.0 mi SSW 16.1 mph 19.6 mph N/A   Clear
1:55 PM 88.7 °F 89.1 °F 61.9 °F 41% 29.75 in 10.0 mi SSW 15.0 mph 21.9 mph N/A   Clear
2:15 PM 89.6 °F 89.8 °F 61.9 °F 39% 29.74 in 10.0 mi SSW 17.3 mph - N/A   Clear
2:35 PM 90.9 °F 90.6 °F 60.4 °F 36% 29.75 in 10.0 mi SSW 16.1 mph - N/A   Clear
2:55 PM 93.2 °F 92.6 °F 59.0 °F 32% 29.73 in 10.0 mi SSW 17.3 mph 20.7 mph N/A   Clear
3:15 PM 90.1 °F 89.9 °F 60.3 °F 37% 29.74 in 10.0 mi NW 16.1 mph - N/A   Clear
3:35 PM 89.6 °F 89.5 °F 61.2 °F 38% 29.75 in 10.0 mi NW 13.8 mph 18.4 mph N/A   Clear
3:55 PM 88.0 °F 88.7 °F 63.1 °F 43% 29.75 in 10.0 mi NNW 11.5 mph - N/A   Clear
4:15 PM 88.0 °F 87.9 °F 61.2 °F 40% 29.75 in 10.0 mi WNW 9.2 mph - N/A   Clear
4:35 PM 88.2 °F 89.3 °F 64.0 °F 44% 29.74 in 10.0 mi NNW 6.9 mph - N/A   Clear
4:55 PM 87.8 °F 89.7 °F 65.1 °F 47% 29.75 in 10.0 mi NNW 5.8 mph - N/A   Clear
5:15 PM 87.1 °F 88.0 °F 63.3 °F 45% 29.75 in 10.0 mi North 5.8 mph - N/A   Clear
5:35 PM 86.9 °F 88.6 °F 64.8 °F 48% 29.76 in 10.0 mi North 5.8 mph - N/A   Clear
5:55 PM 86.4 °F 87.6 °F 63.7 °F 47% 29.76 in 10.0 mi NNE 4.6 mph - N/A   Clear
6:15 PM 85.5 °F 87.1 °F 64.8 °F 50% 29.76 in 10.0 mi NNE 3.5 mph - N/A   Clear
6:35 PM 84.4 °F 86.8 °F 66.7 °F 55% 29.76 in 10.0 mi NNE 3.5 mph - N/A   Clear
6:55 PM 82.6 °F 85.5 °F 67.8 °F 61% 29.76 in 10.0 mi NNE 4.6 mph - N/A   Clear
7:15 PM 80.6 °F 82.9 °F 66.9 °F 63% 29.76 in 10.0 mi North 3.5 mph - N/A   Scattered Clouds
7:35 PM 79.2 °F - 66.6 °F 65% 29.76 in 10.0 mi NNE 3.5 mph - N/A   Scattered Clouds
7:55 PM 78.8 °F - 65.1 °F 63% 29.77 in 10.0 mi Calm Calm - N/A   Scattered Clouds
8:15 PM 77.9 °F - 64.9 °F 64% 29.78 in 10.0 mi NNE 5.8 mph - N/A   Mostly Cloudy
8:35 PM 75.9 °F - 64.8 °F 68% 29.79 in 10.0 mi NNE 3.5 mph - N/A   Scattered Clouds
8:55 PM 75.0 °F - 64.6 °F 70% 29.79 in 10.0 mi Calm Calm - N/A   Clear
9:15 PM 73.2 °F - 64.8 °F 75% 29.80 in 10.0 mi Calm Calm - N/A   Clear
9:35 PM 72.7 °F - 64.8 °F 76% 29.80 in 10.0 mi NNW 4.6 mph - N/A   Clear
9:55 PM 69.3 °F - 63.9 °F 83% 29.80 in 10.0 mi NW 4.6 mph - N/A   Clear
10:15 PM 70.0 °F - 63.7 °F 80% 29.81 in 10.0 mi NW 5.8 mph - N/A   Mostly Cloudy
10:35 PM 70.9 °F - 64.0 °F 79% 29.82 in 10.0 mi NW 6.9 mph - N/A   Mostly Cloudy
10:55 PM 70.0 °F - 64.0 °F 81% 29.81 in 10.0 mi NW 5.8 mph - N/A   Scattered Clouds
11:15 PM 68.5 °F - 63.5 °F 84% 29.81 in 10.0 mi NW 3.5 mph - N/A   Scattered Clouds
11:35 PM 68.7 °F - 63.0 °F 82% 29.81 in 10.0 mi Calm Calm - N/A   Clear
11:55 PM 67.3 °F - 62.8 °F 85% 29.82 in 10.0 mi Calm Calm - N/A   Clear